Time,TemperatureF,DewpointF,PressureIn,WindDirection,WindDirectionDegrees,WindSpeedMPH,WindSpeedGustMPH,Humidity,HourlyPrecipIn,Conditions,Clouds,dailyrainin,SoftwareType,DateUTC
2013-01-15 00:00:00,53.2,51.8,30.17,NNE,24,3.0,5.0,95,0.06,,---,0.00,VWS V14.01,2013-01-15 05:00:00,
2013-01-15 00:04:00,53.0,51.9,30.18,NNE,15,2.0,7.0,96,0.06,,---,0.00,VWS V14.01,2013-01-15 05:04:00,
2013-01-15 00:05:00,53.0,51.9,30.18,NNE,15,2.0,7.0,96,0.06,,---,0.00,VWS V14.01,2013-01-15 05:05:00,
2013-01-15 00:10:00,52.7,51.6,30.18,NE,39,1.0,7.0,96,0.07,,---,0.01,VWS V14.01,2013-01-15 05:10:00,
2013-01-15 00:15:00,52.6,51.2,30.19,NE,55,2.0,7.0,95,0.07,,---,0.01,VWS V14.01,2013-01-15 05:15:00,
2013-01-15 00:19:00,52.3,50.9,30.19,NE,46,4.0,7.0,95,0.09,,---,0.03,VWS V14.01,2013-01-15 05:19:00,
2013-01-15 00:20:00,52.3,50.9,30.19,NE,46,4.0,7.0,95,0.09,,---,0.03,VWS V14.01,2013-01-15 05:20:00,
2013-01-15 00:24:00,52.1,50.7,30.18,NNE,32,2.0,6.0,95,0.10,,---,0.04,VWS V14.01,2013-01-15 05:24:00,
2013-01-15 00:25:00,52.1,50.7,30.18,NNE,32,2.0,6.0,95,0.10,,---,0.04,VWS V14.01,2013-01-15 05:25:00,
2013-01-15 00:30:00,51.9,50.8,30.18,NE,49,1.0,5.0,96,0.12,,---,0.06,VWS V14.01,2013-01-15 05:30:00,
2013-01-15 00:35:00,51.8,50.7,30.18,ENE,57,1.0,4.0,96,0.11,,---,0.06,VWS V14.01,2013-01-15 05:35:00,
2013-01-15 00:40:00,51.4,50.3,30.18,NE,44,2.0,7.0,96,0.10,,---,0.06,VWS V14.01,2013-01-15 05:40:00,
2013-01-15 00:45:00,51.2,50.1,30.18,NE,35,4.0,8.0,96,0.10,,---,0.06,VWS V14.01,2013-01-15 05:45:00,
2013-01-15 00:50:00,51.0,49.9,30.19,NE,47,1.0,5.0,96,0.10,,---,0.06,VWS V14.01,2013-01-15 05:50:00,
2013-01-15 00:54:00,50.8,49.4,30.19,NE,45,2.0,7.0,95,0.09,,---,0.06,VWS V14.01,2013-01-15 05:54:00,
2013-01-15 00:55:00,50.8,49.4,30.19,NE,45,2.0,7.0,95,0.09,,---,0.06,VWS V14.01,2013-01-15 05:55:00,
2013-01-15 01:00:00,50.5,49.1,30.19,ENE,59,3.0,5.0,95,0.07,,---,0.06,VWS V14.01,2013-01-15 06:00:00,
2013-01-15 01:05:00,50.1,48.7,30.18,East,82,3.0,8.0,95,0.06,,---,0.06,VWS V14.01,2013-01-15 06:05:00,
2013-01-15 01:09:00,49.8,48.4,30.18,ENE,58,1.0,6.0,95,0.06,,---,0.06,VWS V14.01,2013-01-15 06:09:00,
2013-01-15 01:10:00,49.8,48.4,30.18,ENE,58,1.0,6.0,95,0.06,,---,0.06,VWS V14.01,2013-01-15 06:10:00,
2013-01-15 01:15:00,49.6,48.2,30.18,NE,37,2.0,4.0,95,0.05,,---,0.06,VWS V14.01,2013-01-15 06:15:00,
2013-01-15 01:20:00,49.4,48.0,30.18,ENE,65,1.0,8.0,95,0.05,,---,0.06,VWS V14.01,2013-01-15 06:20:00,
2013-01-15 01:25:00,49.2,47.8,30.19,ENE,78,2.0,4.0,95,0.04,,---,0.07,VWS V14.01,2013-01-15 06:25:00,
2013-01-15 01:30:00,49.0,47.6,30.19,ENE,57,4.0,5.0,95,0.03,,---,0.07,VWS V14.01,2013-01-15 06:30:00,
2013-01-15 01:35:00,48.9,47.5,30.19,ENE,57,0.0,4.0,95,0.01,,---,0.07,VWS V14.01,2013-01-15 06:35:00,
2013-01-15 01:40:00,48.8,47.7,30.19,ENE,57,0.0,1.0,96,0.01,,---,0.07,VWS V14.01,2013-01-15 06:40:00,
2013-01-15 01:45:00,48.7,47.6,30.19,NE,39,1.0,5.0,96,0.01,,---,0.07,VWS V14.01,2013-01-15 06:45:00,
2013-01-15 01:50:00,48.5,47.4,30.19,NE,44,1.0,6.0,96,0.01,,---,0.07,VWS V14.01,2013-01-15 06:50:00,
2013-01-15 01:55:00,48.4,47.3,30.20,NE,51,1.0,5.0,96,0.01,,---,0.07,VWS V14.01,2013-01-15 06:55:00,
2013-01-15 02:00:00,48.3,47.2,30.21,NE,54,2.0,6.0,96,0.01,,---,0.07,VWS V14.01,2013-01-15 07:00:00,
2013-01-15 02:04:00,48.3,47.2,30.21,NE,44,3.0,5.0,96,0.02,,---,0.08,VWS V14.01,2013-01-15 07:04:00,
2013-01-15 02:05:00,48.3,47.2,30.21,NE,44,3.0,5.0,96,0.02,,---,0.08,VWS V14.01,2013-01-15 07:05:00,
2013-01-15 02:10:00,48.2,47.1,30.20,ESE,105,1.0,5.0,96,0.02,,---,0.08,VWS V14.01,2013-01-15 07:10:00,
2013-01-15 02:15:00,48.1,47.0,30.19,East,82,3.0,7.0,96,0.02,,---,0.08,VWS V14.01,2013-01-15 07:15:00,
2013-01-15 02:19:00,48.0,46.9,30.17,ENE,57,0.0,5.0,96,0.02,,---,0.08,VWS V14.01,2013-01-15 07:19:00,
2013-01-15 02:20:00,48.0,46.9,30.17,ENE,57,0.0,5.0,96,0.02,,---,0.08,VWS V14.01,2013-01-15 07:20:00,
2013-01-15 02:24:00,48.0,46.9,30.16,ENE,57,1.0,3.0,96,0.03,,---,0.09,VWS V14.01,2013-01-15 07:24:00,
2013-01-15 02:25:00,48.0,46.9,30.16,ENE,57,1.0,3.0,96,0.03,,---,0.09,VWS V14.01,2013-01-15 07:25:00,
2013-01-15 02:30:00,47.8,46.7,30.15,North,5,2.0,5.0,96,0.02,,---,0.09,VWS V14.01,2013-01-15 07:30:00,
2013-01-15 02:35:00,47.7,46.6,30.16,NE,49,3.0,3.0,96,0.02,,---,0.09,VWS V14.01,2013-01-15 07:35:00,
2013-01-15 02:39:00,47.5,46.4,30.17,ENE,58,0.0,5.0,96,0.02,,---,0.09,VWS V14.01,2013-01-15 07:39:00,
2013-01-15 02:40:00,47.5,46.4,30.17,ENE,58,0.0,5.0,96,0.02,,---,0.09,VWS V14.01,2013-01-15 07:40:00,
2013-01-15 02:44:00,47.4,46.3,30.17,ENE,74,1.0,3.0,96,0.02,,---,0.09,VWS V14.01,2013-01-15 07:44:00,
2013-01-15 02:45:00,47.4,46.3,30.17,ENE,74,1.0,3.0,96,0.02,,---,0.09,VWS V14.01,2013-01-15 07:45:00,
2013-01-15 02:50:00,47.4,46.3,30.17,NNE,31,0.0,4.0,96,0.02,,---,0.09,VWS V14.01,2013-01-15 07:50:00,
2013-01-15 02:55:00,47.4,46.3,30.17,NE,56,3.0,4.0,96,0.02,,---,0.09,VWS V14.01,2013-01-15 07:55:00,
2013-01-15 03:00:00,47.3,46.2,30.17,ENE,63,3.0,4.0,96,0.02,,---,0.09,VWS V14.01,2013-01-15 08:00:00,
2013-01-15 03:05:00,47.1,46.0,30.18,North,355,0.0,4.0,96,0.02,,---,0.09,VWS V14.01,2013-01-15 08:05:00,
2013-01-15 03:10:00,47.0,45.9,30.18,NNE,28,2.0,8.0,96,0.01,,---,0.09,VWS V14.01,2013-01-15 08:10:00,
2013-01-15 03:15:00,46.9,45.8,30.17,NE,35,0.0,4.0,96,0.01,,---,0.09,VWS V14.01,2013-01-15 08:15:00,
2013-01-15 03:20:00,46.9,45.8,30.17,NE,35,0.0,2.0,96,0.01,,---,0.09,VWS V14.01,2013-01-15 08:20:00,
2013-01-15 03:25:00,46.8,45.7,30.17,NE,35,0.0,1.0,96,0.01,,---,0.09,VWS V14.01,2013-01-15 08:25:00,
2013-01-15 03:30:00,46.7,45.6,30.17,NE,35,1.0,3.0,96,0.00,,---,0.09,VWS V14.01,2013-01-15 08:30:00,
2013-01-15 03:35:00,46.4,45.3,30.17,ENE,57,1.0,3.0,96,0.00,,---,0.09,VWS V14.01,2013-01-15 08:35:00,
2013-01-15 03:40:00,46.3,45.2,30.17,ENE,57,1.0,3.0,96,0.00,,---,0.09,VWS V14.01,2013-01-15 08:40:00,
2013-01-15 03:44:00,46.1,45.0,30.17,ENE,57,1.0,3.0,96,0.00,,---,0.09,VWS V14.01,2013-01-15 08:44:00,
2013-01-15 03:45:00,46.1,45.0,30.17,ENE,57,1.0,3.0,96,0.00,,---,0.09,VWS V14.01,2013-01-15 08:45:00,
2013-01-15 03:50:00,46.1,45.0,30.16,NE,56,1.0,3.0,96,0.00,,---,0.09,VWS V14.01,2013-01-15 08:50:00,
2013-01-15 03:55:00,46.0,44.9,30.16,NE,54,0.0,4.0,96,0.00,,---,0.09,VWS V14.01,2013-01-15 08:55:00,
2013-01-15 04:00:00,45.9,44.8,30.16,ENE,78,2.0,3.0,96,0.00,,---,0.09,VWS V14.01,2013-01-15 09:00:00,
2013-01-15 04:05:00,45.8,44.7,30.15,NNW,336,1.0,3.0,96,0.00,,---,0.09,VWS V14.01,2013-01-15 09:05:00,
2013-01-15 04:10:00,45.6,44.5,30.16,NE,51,0.0,6.0,96,0.00,,---,0.09,VWS V14.01,2013-01-15 09:10:00,
2013-01-15 04:15:00,45.5,44.4,30.16,ENE,63,1.0,2.0,96,0.00,,---,0.09,VWS V14.01,2013-01-15 09:15:00,
2013-01-15 04:20:00,45.5,44.4,30.15,ENE,63,1.0,3.0,96,0.00,,---,0.09,VWS V14.01,2013-01-15 09:20:00,
2013-01-15 04:25:00,45.4,44.3,30.15,NE,46,1.0,4.0,96,0.00,,---,0.09,VWS V14.01,2013-01-15 09:25:00,
2013-01-15 04:30:00,45.3,44.2,30.16,NE,53,0.0,5.0,96,0.00,,---,0.09,VWS V14.01,2013-01-15 09:30:00,
2013-01-15 04:35:00,45.3,44.2,30.16,NE,41,2.0,5.0,96,0.00,,---,0.09,VWS V14.01,2013-01-15 09:35:00,
2013-01-15 04:40:00,45.2,44.1,30.16,NE,52,1.0,5.0,96,0.00,,---,0.09,VWS V14.01,2013-01-15 09:40:00,
2013-01-15 04:45:00,45.1,44.0,30.16,NE,52,2.0,4.0,96,0.00,,---,0.09,VWS V14.01,2013-01-15 09:45:00,
2013-01-15 04:50:00,45.1,44.0,30.15,NE,46,3.0,5.0,96,0.01,,---,0.10,VWS V14.01,2013-01-15 09:50:00,
2013-01-15 04:55:00,45.0,43.9,30.15,North,5,0.0,5.0,96,0.01,,---,0.10,VWS V14.01,2013-01-15 09:55:00,
2013-01-15 04:59:00,45.0,43.9,30.15,NE,34,1.0,4.0,96,0.01,,---,0.10,VWS V14.01,2013-01-15 09:59:00,
2013-01-15 05:00:00,45.0,43.9,30.15,NE,34,1.0,4.0,96,0.01,,---,0.10,VWS V14.01,2013-01-15 10:00:00,
2013-01-15 05:05:00,45.0,43.9,30.15,North,10,2.0,3.0,96,0.01,,---,0.10,VWS V14.01,2013-01-15 10:05:00,
2013-01-15 05:10:00,45.0,44.2,30.15,North,10,1.0,2.0,97,0.01,,---,0.10,VWS V14.01,2013-01-15 10:10:00,
2013-01-15 05:14:00,44.9,44.1,30.15,NE,34,1.0,3.0,97,0.02,,---,0.11,VWS V14.01,2013-01-15 10:14:00,
2013-01-15 05:15:00,44.9,44.1,30.15,NE,34,1.0,3.0,97,0.02,,---,0.11,VWS V14.01,2013-01-15 10:15:00,
2013-01-15 05:20:00,45.0,44.2,30.15,NE,34,0.0,1.0,97,0.02,,---,0.11,VWS V14.01,2013-01-15 10:20:00,
2013-01-15 05:25:00,45.0,44.2,30.15,NE,34,0.0,2.0,97,0.02,,---,0.11,VWS V14.01,2013-01-15 10:25:00,
2013-01-15 05:29:00,45.0,44.2,30.15,NNE,24,0.0,4.0,97,0.02,,---,0.11,VWS V14.01,2013-01-15 10:29:00,
2013-01-15 05:30:00,45.0,44.2,30.15,NNE,24,0.0,4.0,97,0.02,,---,0.11,VWS V14.01,2013-01-15 10:30:00,
2013-01-15 05:34:00,45.0,44.2,30.15,NNE,24,0.0,3.0,97,0.03,,---,0.12,VWS V14.01,2013-01-15 10:34:00,
2013-01-15 05:35:00,45.0,44.2,30.15,NNE,24,0.0,3.0,97,0.03,,---,0.12,VWS V14.01,2013-01-15 10:35:00,
2013-01-15 05:40:00,44.9,44.1,30.14,NE,45,2.0,4.0,97,0.03,,---,0.12,VWS V14.01,2013-01-15 10:40:00,
2013-01-15 05:45:00,44.9,44.1,30.14,NNE,28,1.0,3.0,97,0.03,,---,0.12,VWS V14.01,2013-01-15 10:45:00,
2013-01-15 05:49:00,44.8,44.0,30.16,NE,49,1.0,5.0,97,0.03,,---,0.12,VWS V14.01,2013-01-15 10:49:00,
2013-01-15 05:50:00,44.8,44.0,30.16,NE,49,1.0,5.0,97,0.03,,---,0.12,VWS V14.01,2013-01-15 10:50:00,
2013-01-15 05:54:00,44.8,44.0,30.15,NNE,24,1.0,4.0,97,0.02,,---,0.12,VWS V14.01,2013-01-15 10:54:00,
2013-01-15 05:55:00,44.8,44.0,30.15,NNE,24,1.0,4.0,97,0.02,,---,0.12,VWS V14.01,2013-01-15 10:55:00,
2013-01-15 06:00:00,44.8,44.0,30.15,NE,49,2.0,3.0,97,0.02,,---,0.12,VWS V14.01,2013-01-15 11:00:00,
2013-01-15 06:05:00,44.8,44.0,30.15,NE,48,1.0,3.0,97,0.02,,---,0.12,VWS V14.01,2013-01-15 11:05:00,
2013-01-15 06:10:00,44.7,43.9,30.15,NE,48,0.0,3.0,97,0.02,,---,0.12,VWS V14.01,2013-01-15 11:10:00,
2013-01-15 06:15:00,44.7,43.9,30.15,NE,48,3.0,3.0,97,0.02,,---,0.12,VWS V14.01,2013-01-15 11:15:00,
2013-01-15 06:20:00,44.6,43.8,30.15,NE,48,0.0,3.0,97,0.02,,---,0.13,VWS V14.01,2013-01-15 11:20:00,
2013-01-15 06:25:00,44.5,43.7,30.15,NNE,22,3.0,6.0,97,0.02,,---,0.13,VWS V14.01,2013-01-15 11:25:00,
2013-01-15 06:30:00,44.5,43.7,30.16,NNE,28,0.0,4.0,97,0.02,,---,0.13,VWS V14.01,2013-01-15 11:30:00,
2013-01-15 06:35:00,44.5,43.7,30.16,NNE,28,2.0,2.0,97,0.02,,---,0.13,VWS V14.01,2013-01-15 11:35:00,
2013-01-15 06:40:00,44.5,43.7,30.16,NNE,25,1.0,3.0,97,0.01,,---,0.13,VWS V14.01,2013-01-15 11:40:00,
2013-01-15 06:44:00,44.5,43.7,30.16,ENE,69,0.0,3.0,97,0.01,,---,0.13,VWS V14.01,2013-01-15 11:44:00,
2013-01-15 06:45:00,44.5,43.7,30.16,ENE,69,0.0,3.0,97,0.01,,---,0.13,VWS V14.01,2013-01-15 11:45:00,
2013-01-15 06:49:00,44.5,43.7,30.16,NE,38,1.0,6.0,97,0.01,,---,0.13,VWS V14.01,2013-01-15 11:49:00,
2013-01-15 06:50:00,44.5,43.7,30.16,NE,38,1.0,6.0,97,0.01,,---,0.13,VWS V14.01,2013-01-15 11:50:00,
2013-01-15 06:54:00,44.5,43.7,30.16,NE,39,0.0,3.0,97,0.01,,---,0.13,VWS V14.01,2013-01-15 11:54:00,
2013-01-15 06:55:00,44.5,43.7,30.16,NE,39,0.0,3.0,97,0.01,,---,0.13,VWS V14.01,2013-01-15 11:55:00,
2013-01-15 06:59:00,44.5,43.7,30.16,NE,40,1.0,3.0,97,0.01,,---,0.13,VWS V14.01,2013-01-15 11:59:00,
2013-01-15 07:00:00,44.5,43.7,30.16,NE,40,1.0,3.0,97,0.01,,---,0.13,VWS V14.01,2013-01-15 12:00:00,
2013-01-15 07:04:00,44.5,43.7,30.16,NE,40,1.0,3.0,97,0.01,,---,0.13,VWS V14.01,2013-01-15 12:04:00,
2013-01-15 07:05:00,44.5,43.7,30.16,NE,40,1.0,3.0,97,0.01,,---,0.13,VWS V14.01,2013-01-15 12:05:00,
2013-01-15 07:10:00,44.4,43.6,30.17,North,355,1.0,3.0,97,0.01,,---,0.13,VWS V14.01,2013-01-15 12:10:00,
2013-01-15 07:15:00,44.4,43.6,30.17,ENE,58,2.0,6.0,97,0.01,,---,0.13,VWS V14.01,2013-01-15 12:15:00,
2013-01-15 07:19:00,44.4,43.6,30.17,ENE,58,1.0,2.0,97,0.02,,---,0.14,VWS V14.01,2013-01-15 12:19:00,
2013-01-15 07:20:00,44.4,43.6,30.17,ENE,58,1.0,2.0,97,0.02,,---,0.14,VWS V14.01,2013-01-15 12:20:00,
2013-01-15 07:25:00,44.4,43.6,30.17,ENE,67,1.0,4.0,97,0.01,,---,0.14,VWS V14.01,2013-01-15 12:25:00,
2013-01-15 07:30:00,44.4,43.6,30.18,ENE,75,0.0,4.0,97,0.01,,---,0.14,VWS V14.01,2013-01-15 12:30:00,
2013-01-15 07:35:00,44.3,43.5,30.18,NE,46,0.0,3.0,97,0.01,,---,0.14,VWS V14.01,2013-01-15 12:35:00,
2013-01-15 07:40:00,44.2,43.4,30.19,ENE,63,1.0,2.0,97,0.01,,---,0.14,VWS V14.01,2013-01-15 12:40:00,
2013-01-15 07:45:00,44.2,43.4,30.19,NE,34,1.0,5.0,97,0.01,,---,0.14,VWS V14.01,2013-01-15 12:45:00,
2013-01-15 07:50:00,44.2,43.4,30.20,NNE,32,1.0,4.0,97,0.01,,---,0.14,VWS V14.01,2013-01-15 12:50:00,
2013-01-15 07:55:00,44.2,43.4,30.20,NNE,32,0.0,3.0,97,0.01,,---,0.14,VWS V14.01,2013-01-15 12:55:00,
2013-01-15 08:00:00,44.2,43.4,30.20,NE,44,0.0,3.0,97,0.02,,---,0.15,VWS V14.01,2013-01-15 13:00:00,
2013-01-15 08:04:00,44.2,43.4,30.21,NE,41,1.0,4.0,97,0.03,,---,0.16,VWS V14.01,2013-01-15 13:04:00,
2013-01-15 08:05:00,44.2,43.4,30.21,NE,41,1.0,4.0,97,0.03,,---,0.16,VWS V14.01,2013-01-15 13:05:00,
2013-01-15 08:09:00,44.2,43.4,30.21,NNE,21,0.0,6.0,97,0.03,,---,0.16,VWS V14.01,2013-01-15 13:09:00,
2013-01-15 08:10:00,44.2,43.4,30.21,NNE,21,0.0,6.0,97,0.03,,---,0.16,VWS V14.01,2013-01-15 13:10:00,
2013-01-15 08:14:00,44.2,43.4,30.22,NNE,21,0.0,4.0,97,0.03,,---,0.16,VWS V14.01,2013-01-15 13:14:00,
2013-01-15 08:15:00,44.2,43.4,30.22,NNE,21,0.0,4.0,97,0.03,,---,0.16,VWS V14.01,2013-01-15 13:15:00,
2013-01-15 08:20:00,44.1,43.3,30.22,NNE,18,1.0,5.0,97,0.04,,---,0.17,VWS V14.01,2013-01-15 13:20:00,
2013-01-15 08:25:00,44.1,43.3,30.23,NE,47,4.0,7.0,97,0.03,,---,0.17,VWS V14.01,2013-01-15 13:25:00,
2013-01-15 08:30:00,44.2,43.4,30.23,NE,34,0.0,4.0,97,0.03,,---,0.17,VWS V14.01,2013-01-15 13:30:00,
2013-01-15 08:34:00,44.1,43.3,30.23,NNE,30,5.0,5.0,97,0.04,,---,0.18,VWS V14.01,2013-01-15 13:34:00,
2013-01-15 08:35:00,44.1,43.3,30.23,NNE,30,5.0,5.0,97,0.04,,---,0.18,VWS V14.01,2013-01-15 13:35:00,
2013-01-15 08:40:00,44.1,43.3,30.23,ENE,63,1.0,6.0,97,0.05,,---,0.19,VWS V14.01,2013-01-15 13:40:00,
2013-01-15 08:45:00,44.1,43.3,30.23,NNE,19,0.0,4.0,97,0.05,,---,0.19,VWS V14.01,2013-01-15 13:45:00,
2013-01-15 08:49:00,44.1,43.3,30.23,NE,47,0.0,3.0,97,0.05,,---,0.19,VWS V14.01,2013-01-15 13:49:00,
2013-01-15 08:50:00,44.1,43.3,30.23,NE,47,0.0,3.0,97,0.05,,---,0.19,VWS V14.01,2013-01-15 13:50:00,
2013-01-15 08:55:00,44.1,43.3,30.22,NE,38,0.0,4.0,97,0.06,,---,0.20,VWS V14.01,2013-01-15 13:55:00,
2013-01-15 09:00:00,44.0,43.2,30.22,NE,55,2.0,4.0,97,0.07,,---,0.21,VWS V14.01,2013-01-15 14:00:00,
2013-01-15 09:05:00,43.9,43.1,30.22,ENE,78,1.0,4.0,97,0.06,,---,0.21,VWS V14.01,2013-01-15 14:05:00,
2013-01-15 09:09:00,43.8,43.0,30.23,ENE,57,2.0,6.0,97,0.05,,---,0.21,VWS V14.01,2013-01-15 14:09:00,
2013-01-15 09:10:00,43.8,43.0,30.23,ENE,57,2.0,6.0,97,0.05,,---,0.21,VWS V14.01,2013-01-15 14:10:00,
2013-01-15 09:14:00,43.7,42.9,30.23,East,98,0.0,5.0,97,0.05,,---,0.21,VWS V14.01,2013-01-15 14:14:00,
2013-01-15 09:15:00,43.7,42.9,30.23,East,98,0.0,5.0,97,0.05,,---,0.21,VWS V14.01,2013-01-15 14:15:00,
2013-01-15 09:19:00,43.7,42.9,30.23,ENE,66,5.0,5.0,97,0.05,,---,0.21,VWS V14.01,2013-01-15 14:19:00,
2013-01-15 09:20:00,43.7,42.9,30.23,ENE,66,5.0,5.0,97,0.05,,---,0.21,VWS V14.01,2013-01-15 14:20:00,
2013-01-15 09:24:00,43.6,42.8,30.23,NNE,30,3.0,8.0,97,0.05,,---,0.22,VWS V14.01,2013-01-15 14:24:00,
2013-01-15 09:25:00,43.6,42.8,30.23,NNE,30,3.0,8.0,97,0.05,,---,0.22,VWS V14.01,2013-01-15 14:25:00,
2013-01-15 09:30:00,43.5,42.7,30.24,NE,39,1.0,3.0,97,0.05,,---,0.22,VWS V14.01,2013-01-15 14:30:00,
2013-01-15 09:35:00,43.5,42.7,30.24,ENE,61,3.0,5.0,97,0.07,,---,0.24,VWS V14.01,2013-01-15 14:35:00,
2013-01-15 09:39:00,43.4,42.6,30.24,NE,43,2.0,6.0,97,0.07,,---,0.25,VWS V14.01,2013-01-15 14:39:00,
2013-01-15 09:40:00,43.4,42.6,30.24,NE,43,2.0,6.0,97,0.07,,---,0.25,VWS V14.01,2013-01-15 14:40:00,
2013-01-15 09:44:00,43.4,42.6,30.23,ENE,63,1.0,4.0,97,0.07,,---,0.26,VWS V14.01,2013-01-15 14:44:00,
2013-01-15 09:45:00,43.4,42.6,30.23,ENE,63,1.0,4.0,97,0.07,,---,0.26,VWS V14.01,2013-01-15 14:45:00,
2013-01-15 09:50:00,43.4,42.6,30.24,NNE,30,3.0,5.0,97,0.07,,---,0.26,VWS V14.01,2013-01-15 14:50:00,
2013-01-15 09:55:00,43.4,42.6,30.24,NE,53,2.0,4.0,97,0.08,,---,0.27,VWS V14.01,2013-01-15 14:55:00,
2013-01-15 09:59:00,43.3,42.2,30.23,NE,56,0.0,5.0,96,0.07,,---,0.27,VWS V14.01,2013-01-15 14:59:00,
2013-01-15 10:00:00,43.3,42.2,30.23,NE,56,0.0,5.0,96,0.07,,---,0.27,VWS V14.01,2013-01-15 15:00:00,
2013-01-15 10:05:00,43.3,42.2,30.23,ENE,59,2.0,4.0,96,0.07,,---,0.28,VWS V14.01,2013-01-15 15:05:00,
2013-01-15 10:10:00,43.3,42.5,30.23,ENE,59,2.0,2.0,97,0.08,,---,0.29,VWS V14.01,2013-01-15 15:10:00,
2013-01-15 10:14:00,43.3,42.5,30.23,ENE,66,0.0,4.0,97,0.08,,---,0.29,VWS V14.01,2013-01-15 15:14:00,
2013-01-15 10:15:00,43.3,42.5,30.23,ENE,66,0.0,4.0,97,0.08,,---,0.29,VWS V14.01,2013-01-15 15:15:00,
2013-01-15 10:19:00,43.3,42.5,30.23,ENE,66,1.0,2.0,97,0.09,,---,0.30,VWS V14.01,2013-01-15 15:19:00,
2013-01-15 10:20:00,43.3,42.5,30.23,ENE,66,1.0,2.0,97,0.09,,---,0.30,VWS V14.01,2013-01-15 15:20:00,
2013-01-15 10:24:00,43.3,42.5,30.23,NE,37,2.0,5.0,97,0.09,,---,0.30,VWS V14.01,2013-01-15 15:24:00,
2013-01-15 10:25:00,43.3,42.5,30.23,NE,37,2.0,5.0,97,0.09,,---,0.30,VWS V14.01,2013-01-15 15:25:00,
2013-01-15 10:29:00,43.3,42.5,30.23,East,88,0.0,4.0,97,0.09,,---,0.31,VWS V14.01,2013-01-15 15:29:00,
2013-01-15 10:30:00,43.3,42.5,30.23,East,88,0.0,4.0,97,0.09,,---,0.31,VWS V14.01,2013-01-15 15:30:00,
2013-01-15 10:34:00,43.1,42.0,30.23,NE,54,2.0,5.0,96,0.09,,---,0.31,VWS V14.01,2013-01-15 15:34:00,
2013-01-15 10:35:00,43.1,42.0,30.23,NE,54,2.0,5.0,96,0.09,,---,0.31,VWS V14.01,2013-01-15 15:35:00,
2013-01-15 10:40:00,43.1,42.0,30.23,North,11,5.0,6.0,96,0.08,,---,0.32,VWS V14.01,2013-01-15 15:40:00,
2013-01-15 10:45:00,43.1,42.0,30.23,NNE,28,0.0,6.0,96,0.07,,---,0.32,VWS V14.01,2013-01-15 15:45:00,
2013-01-15 10:49:00,43.1,42.0,30.23,NE,53,1.0,3.0,96,0.06,,---,0.32,VWS V14.01,2013-01-15 15:49:00,
2013-01-15 10:50:00,43.1,42.0,30.23,NE,53,1.0,3.0,96,0.06,,---,0.32,VWS V14.01,2013-01-15 15:50:00,
2013-01-15 10:54:00,43.1,42.3,30.23,NE,49,1.0,4.0,97,0.07,,---,0.33,VWS V14.01,2013-01-15 15:54:00,
2013-01-15 10:55:00,43.1,42.3,30.23,NE,49,1.0,4.0,97,0.07,,---,0.33,VWS V14.01,2013-01-15 15:55:00,
2013-01-15 10:59:00,43.1,42.3,30.23,NE,55,2.0,3.0,97,0.06,,---,0.33,VWS V14.01,2013-01-15 15:59:00,
2013-01-15 11:00:00,43.1,42.3,30.23,NE,55,2.0,3.0,97,0.06,,---,0.33,VWS V14.01,2013-01-15 16:00:00,
2013-01-15 11:05:00,43.1,42.3,30.23,NNE,32,0.0,4.0,97,0.07,,---,0.34,VWS V14.01,2013-01-15 16:05:00,
2013-01-15 11:10:00,43.0,42.2,30.23,NE,40,2.0,3.0,97,0.06,,---,0.34,VWS V14.01,2013-01-15 16:10:00,
2013-01-15 11:14:00,42.9,42.1,30.22,ENE,78,2.0,5.0,97,0.05,,---,0.34,VWS V14.01,2013-01-15 16:14:00,
2013-01-15 11:15:00,42.9,42.1,30.22,ENE,78,2.0,5.0,97,0.05,,---,0.34,VWS V14.01,2013-01-15 16:15:00,
2013-01-15 11:19:00,42.9,42.1,30.22,ENE,66,1.0,6.0,97,0.05,,---,0.34,VWS V14.01,2013-01-15 16:19:00,
2013-01-15 11:20:00,42.9,42.1,30.22,ENE,66,1.0,6.0,97,0.05,,---,0.34,VWS V14.01,2013-01-15 16:20:00,
2013-01-15 11:24:00,42.9,42.1,30.22,ENE,74,3.0,3.0,97,0.04,,---,0.34,VWS V14.01,2013-01-15 16:24:00,
2013-01-15 11:25:00,42.9,42.1,30.22,ENE,74,3.0,3.0,97,0.04,,---,0.34,VWS V14.01,2013-01-15 16:25:00,
2013-01-15 11:29:00,42.9,42.1,30.21,North,360,2.0,6.0,97,0.05,,---,0.35,VWS V14.01,2013-01-15 16:29:00,
2013-01-15 11:30:00,42.3,41.2,30.20,ENE,65,4.0,6.0,96,0.07,,---,0.41,VWS V14.01,2013-01-15 16:30:00,
2013-01-15 11:35:00,42.8,42.0,30.22,NNE,31,1.0,12.0,97,0.04,,---,0.35,VWS V14.01,2013-01-15 16:35:00,
2013-01-15 11:40:00,42.2,41.1,30.19,ENE,63,3.0,3.0,96,0.07,,---,0.42,VWS V14.01,2013-01-15 16:40:00,
2013-01-15 11:45:00,42.7,41.6,30.21,ENE,59,1.0,4.0,96,0.04,,---,0.36,VWS V14.01,2013-01-15 16:45:00,
2013-01-15 11:50:00,42.5,41.4,30.22,NE,42,1.0,11.0,96,0.04,,---,0.36,VWS V14.01,2013-01-15 16:50:00,
2013-01-15 11:55:00,42.5,41.4,30.22,NE,38,0.0,4.0,96,0.04,,---,0.36,VWS V14.01,2013-01-15 16:55:00,
2013-01-15 11:59:00,42.5,41.4,30.22,NE,38,2.0,3.0,96,0.03,,---,0.36,VWS V14.01,2013-01-15 16:59:00,
2013-01-15 12:00:00,42.5,41.4,30.22,NE,38,2.0,3.0,96,0.03,,---,0.36,VWS V14.01,2013-01-15 17:00:00,
2013-01-15 12:04:00,42.6,41.5,30.21,NE,36,4.0,4.0,96,0.04,,---,0.37,VWS V14.01,2013-01-15 17:04:00,
2013-01-15 12:05:00,42.6,41.5,30.21,NE,36,4.0,4.0,96,0.04,,---,0.37,VWS V14.01,2013-01-15 17:05:00,
2013-01-15 12:09:00,42.5,41.4,30.21,NNE,33,1.0,5.0,96,0.04,,---,0.38,VWS V14.01,2013-01-15 17:09:00,
2013-01-15 12:10:00,42.5,41.4,30.21,NNE,33,1.0,5.0,96,0.04,,---,0.38,VWS V14.01,2013-01-15 17:10:00,
2013-01-15 12:15:00,42.5,41.4,30.21,East,81,2.0,3.0,96,0.04,,---,0.38,VWS V14.01,2013-01-15 17:15:00,
2013-01-15 12:20:00,42.4,41.3,30.20,NE,54,1.0,4.0,96,0.06,,---,0.40,VWS V14.01,2013-01-15 17:20:00,
2013-01-15 12:25:00,42.3,41.2,30.20,ENE,59,2.0,3.0,96,0.07,,---,0.41,VWS V14.01,2013-01-15 17:25:00,
2013-01-15 12:29:00,42.3,41.2,30.20,ENE,65,4.0,6.0,96,0.07,,---,0.41,VWS V14.01,2013-01-15 17:29:00,
2013-01-15 12:30:00,42.3,41.2,30.20,ENE,65,4.0,6.0,96,0.07,,---,0.41,VWS V14.01,2013-01-15 17:30:00,
2013-01-15 12:34:00,42.2,41.1,30.20,ENE,63,1.0,5.0,96,0.07,,---,0.42,VWS V14.01,2013-01-15 17:34:00,
2013-01-15 12:35:00,42.2,41.1,30.20,ENE,63,1.0,5.0,96,0.07,,---,0.42,VWS V14.01,2013-01-15 17:35:00,
2013-01-15 12:40:00,42.2,41.1,30.19,ENE,63,3.0,3.0,96,0.07,,---,0.42,VWS V14.01,2013-01-15 17:40:00,
2013-01-15 12:45:00,42.1,41.0,30.19,ENE,60,5.0,5.0,96,0.06,,---,0.42,VWS V14.01,2013-01-15 17:45:00,
2013-01-15 12:49:00,42.0,40.9,30.19,ENE,58,0.0,5.0,96,0.06,,---,0.42,VWS V14.01,2013-01-15 17:49:00,
2013-01-15 12:50:00,42.0,40.9,30.19,ENE,58,0.0,5.0,96,0.06,,---,0.42,VWS V14.01,2013-01-15 17:50:00,
2013-01-15 12:55:00,42.0,40.9,30.19,NE,55,0.0,4.0,96,0.07,,---,0.43,VWS V14.01,2013-01-15 17:55:00,
2013-01-15 13:00:00,41.9,40.8,30.19,ENE,67,2.0,5.0,96,0.07,,---,0.43,VWS V14.01,2013-01-15 18:00:00,
2013-01-15 13:05:00,41.9,40.8,30.19,East,96,1.0,3.0,96,0.08,,---,0.44,VWS V14.01,2013-01-15 18:05:00,
2013-01-15 13:09:00,41.8,40.8,30.19,ENE,61,0.0,2.0,96,0.07,,---,0.44,VWS V14.01,2013-01-15 18:09:00,
2013-01-15 13:10:00,41.8,40.8,30.19,ENE,61,0.0,2.0,96,0.07,,---,0.44,VWS V14.01,2013-01-15 18:10:00,
2013-01-15 13:14:00,41.9,40.8,30.19,ENE,61,0.0,2.0,96,0.06,,---,0.44,VWS V14.01,2013-01-15 18:14:00,
2013-01-15 13:15:00,41.9,40.8,30.19,ENE,61,0.0,2.0,96,0.06,,---,0.44,VWS V14.01,2013-01-15 18:15:00,
2013-01-15 13:20:00,41.9,41.1,30.19,ENE,61,1.0,1.0,97,0.07,,---,0.45,VWS V14.01,2013-01-15 18:20:00,
2013-01-15 13:25:00,42.0,41.2,30.18,ENE,65,0.0,4.0,97,0.05,,---,0.45,VWS V14.01,2013-01-15 18:25:00,
2013-01-15 13:30:00,41.9,41.1,30.18,NNE,19,3.0,6.0,97,0.05,,---,0.46,VWS V14.01,2013-01-15 18:30:00,
2013-01-15 13:35:00,41.8,41.0,30.18,NNE,33,2.0,3.0,97,0.05,,---,0.46,VWS V14.01,2013-01-15 18:35:00,
2013-01-15 13:40:00,41.7,40.9,30.18,ENE,65,3.0,10.0,97,0.04,,---,0.46,VWS V14.01,2013-01-15 18:40:00,
2013-01-15 13:45:00,41.6,40.5,30.18,NE,55,1.0,5.0,96,0.04,,---,0.46,VWS V14.01,2013-01-15 18:45:00,
2013-01-15 13:49:00,41.6,40.5,30.17,NNE,32,1.0,4.0,96,0.04,,---,0.46,VWS V14.01,2013-01-15 18:49:00,
2013-01-15 13:50:00,41.6,40.5,30.17,NNE,32,1.0,4.0,96,0.04,,---,0.46,VWS V14.01,2013-01-15 18:50:00,
2013-01-15 13:54:00,41.6,40.5,30.17,ENE,61,1.0,6.0,96,0.04,,---,0.46,VWS V14.01,2013-01-15 18:54:00,
2013-01-15 13:55:00,41.6,40.5,30.17,ENE,61,1.0,6.0,96,0.04,,---,0.46,VWS V14.01,2013-01-15 18:55:00,
2013-01-15 13:59:00,41.6,40.5,30.16,NE,38,1.0,5.0,96,0.04,,---,0.47,VWS V14.01,2013-01-15 18:59:00,
2013-01-15 14:00:00,41.6,40.5,30.16,NE,38,1.0,5.0,96,0.04,,---,0.47,VWS V14.01,2013-01-15 19:00:00,
2013-01-15 14:05:00,41.6,40.5,30.17,ENE,65,1.0,5.0,96,0.04,,---,0.47,VWS V14.01,2013-01-15 19:05:00,
2013-01-15 14:10:00,41.6,40.5,30.16,NE,49,1.0,5.0,96,0.03,,---,0.47,VWS V14.01,2013-01-15 19:10:00,
2013-01-15 14:14:00,41.6,40.5,30.17,ENE,66,0.0,6.0,96,0.03,,---,0.47,VWS V14.01,2013-01-15 19:14:00,
2013-01-15 14:15:00,41.6,40.5,30.17,ENE,66,0.0,6.0,96,0.03,,---,0.47,VWS V14.01,2013-01-15 19:15:00,
2013-01-15 14:19:00,41.6,40.5,30.17,ENE,60,1.0,3.0,96,0.03,,---,0.47,VWS V14.01,2013-01-15 19:19:00,
2013-01-15 14:20:00,41.6,40.5,30.17,ENE,60,1.0,3.0,96,0.03,,---,0.47,VWS V14.01,2013-01-15 19:20:00,
2013-01-15 14:25:00,41.5,40.5,30.17,ENE,60,0.0,3.0,96,0.02,,---,0.47,VWS V14.01,2013-01-15 19:25:00,
2013-01-15 14:29:00,41.5,40.5,30.17,NNE,30,0.0,4.0,96,0.02,,---,0.47,VWS V14.01,2013-01-15 19:29:00,
2013-01-15 14:30:00,41.5,40.5,30.17,NNE,30,0.0,4.0,96,0.02,,---,0.47,VWS V14.01,2013-01-15 19:30:00,
2013-01-15 14:35:00,41.4,40.3,30.17,NE,56,3.0,6.0,96,0.01,,---,0.47,VWS V14.01,2013-01-15 19:35:00,
2013-01-15 14:40:00,41.4,40.3,30.17,NE,47,1.0,4.0,96,0.01,,---,0.47,VWS V14.01,2013-01-15 19:40:00,
2013-01-15 14:44:00,41.3,40.2,30.17,NE,44,2.0,4.0,96,0.01,,---,0.47,VWS V14.01,2013-01-15 19:44:00,
2013-01-15 14:45:00,41.3,40.2,30.17,NE,44,2.0,4.0,96,0.01,,---,0.47,VWS V14.01,2013-01-15 19:45:00,
2013-01-15 14:49:00,41.3,40.2,30.17,ENE,70,0.0,3.0,96,0.01,,---,0.47,VWS V14.01,2013-01-15 19:49:00,
2013-01-15 14:50:00,41.3,40.2,30.17,ENE,70,0.0,3.0,96,0.01,,---,0.47,VWS V14.01,2013-01-15 19:50:00,
2013-01-15 14:54:00,41.4,40.3,30.18,NE,46,0.0,5.0,96,0.01,,---,0.47,VWS V14.01,2013-01-15 19:54:00,
2013-01-15 14:55:00,41.4,40.3,30.18,NE,46,0.0,5.0,96,0.01,,---,0.47,VWS V14.01,2013-01-15 19:55:00,
2013-01-15 14:59:00,41.4,40.3,30.18,NE,38,0.0,5.0,96,0.01,,---,0.47,VWS V14.01,2013-01-15 19:59:00,
2013-01-15 15:00:00,41.4,40.3,30.18,NE,38,0.0,5.0,96,0.01,,---,0.47,VWS V14.01,2013-01-15 20:00:00,
2013-01-15 15:04:00,41.3,40.2,30.17,NE,48,0.0,3.0,96,0.00,,---,0.47,VWS V14.01,2013-01-15 20:04:00,
2013-01-15 15:05:00,41.3,40.2,30.17,NE,48,0.0,3.0,96,0.00,,---,0.47,VWS V14.01,2013-01-15 20:05:00,
2013-01-15 15:10:00,41.3,40.2,30.17,NE,39,1.0,4.0,96,0.01,,---,0.48,VWS V14.01,2013-01-15 20:10:00,
2013-01-15 15:15:00,41.3,40.2,30.17,NE,39,1.0,2.0,96,0.01,,---,0.48,VWS V14.01,2013-01-15 20:15:00,
2013-01-15 15:19:00,41.3,40.2,30.17,North,355,3.0,4.0,96,0.01,,---,0.48,VWS V14.01,2013-01-15 20:19:00,
2013-01-15 15:20:00,41.3,40.2,30.17,North,355,3.0,4.0,96,0.01,,---,0.48,VWS V14.01,2013-01-15 20:20:00,
2013-01-15 15:24:00,41.4,40.3,30.17,NE,45,0.0,5.0,96,0.01,,---,0.48,VWS V14.01,2013-01-15 20:24:00,
2013-01-15 15:25:00,41.4,40.3,30.17,NE,45,0.0,5.0,96,0.01,,---,0.48,VWS V14.01,2013-01-15 20:25:00,
2013-01-15 15:29:00,41.4,40.3,30.17,NE,51,0.0,6.0,96,0.01,,---,0.48,VWS V14.01,2013-01-15 20:29:00,
2013-01-15 15:30:00,41.4,40.3,30.17,NE,51,0.0,6.0,96,0.01,,---,0.48,VWS V14.01,2013-01-15 20:30:00,
2013-01-15 15:34:00,41.4,40.3,30.17,NNE,30,1.0,4.0,96,0.01,,---,0.48,VWS V14.01,2013-01-15 20:34:00,
2013-01-15 15:35:00,41.4,40.3,30.17,NNE,30,1.0,4.0,96,0.01,,---,0.48,VWS V14.01,2013-01-15 20:35:00,
2013-01-15 15:39:00,41.3,40.2,30.17,NNE,25,1.0,4.0,96,0.02,,---,0.49,VWS V14.01,2013-01-15 20:39:00,
2013-01-15 15:40:00,41.3,40.2,30.17,NNE,25,1.0,4.0,96,0.02,,---,0.49,VWS V14.01,2013-01-15 20:40:00,
2013-01-15 15:45:00,41.3,40.2,30.17,NE,48,0.0,3.0,96,0.02,,---,0.49,VWS V14.01,2013-01-15 20:45:00,
2013-01-15 15:50:00,41.3,40.2,30.17,ENE,62,1.0,7.0,96,0.02,,---,0.49,VWS V14.01,2013-01-15 20:50:00,
2013-01-15 15:55:00,41.0,40.2,30.18,NE,41,1.0,5.0,97,0.00,,---,0.49,VWS V14.01,2013-01-15 20:55:00,
2013-01-15 15:59:00,41.2,40.4,30.18,NNE,17,0.0,4.0,97,0.02,,---,0.49,VWS V14.01,2013-01-15 20:59:00,
2013-01-15 16:00:00,41.2,40.4,30.18,NNE,17,0.0,4.0,97,0.02,,---,0.49,VWS V14.01,2013-01-15 21:00:00,
2013-01-15 16:04:00,41.2,40.4,30.17,NE,47,4.0,5.0,97,0.02,,---,0.49,VWS V14.01,2013-01-15 21:04:00,
2013-01-15 16:05:00,41.2,40.4,30.17,NE,47,4.0,5.0,97,0.02,,---,0.49,VWS V14.01,2013-01-15 21:05:00,
2013-01-15 16:09:00,41.2,40.4,30.17,North,5,4.0,4.0,97,0.02,,---,0.49,VWS V14.01,2013-01-15 21:09:00,
2013-01-15 16:10:00,41.2,40.4,30.17,North,5,4.0,4.0,97,0.02,,---,0.49,VWS V14.01,2013-01-15 21:10:00,
2013-01-15 16:14:00,41.1,40.3,30.17,NE,38,1.0,4.0,97,0.01,,---,0.49,VWS V14.01,2013-01-15 21:14:00,
2013-01-15 16:15:00,41.1,40.3,30.17,NE,38,1.0,4.0,97,0.01,,---,0.49,VWS V14.01,2013-01-15 21:15:00,
2013-01-15 16:20:00,41.1,40.3,30.18,NE,52,1.0,5.0,97,0.01,,---,0.49,VWS V14.01,2013-01-15 21:20:00,
2013-01-15 16:25:00,41.2,40.4,30.18,ENE,62,2.0,6.0,97,0.01,,---,0.49,VWS V14.01,2013-01-15 21:25:00,
2013-01-15 16:29:00,41.1,40.3,30.18,ENE,65,3.0,4.0,97,0.01,,---,0.49,VWS V14.01,2013-01-15 21:29:00,
2013-01-15 16:30:00,41.1,40.3,30.18,ENE,65,3.0,4.0,97,0.01,,---,0.49,VWS V14.01,2013-01-15 21:30:00,
2013-01-15 16:35:00,41.1,40.3,30.18,ENE,57,1.0,3.0,97,0.01,,---,0.49,VWS V14.01,2013-01-15 21:35:00,
2013-01-15 16:40:00,41.1,40.3,30.17,ENE,65,4.0,4.0,97,0.01,,---,0.49,VWS V14.01,2013-01-15 21:40:00,
2013-01-15 16:45:00,41.1,40.3,30.17,East,92,0.0,4.0,97,0.00,,---,0.49,VWS V14.01,2013-01-15 21:45:00,
2013-01-15 16:50:00,41.1,40.3,30.17,NE,50,1.0,4.0,97,0.00,,---,0.49,VWS V14.01,2013-01-15 21:50:00,
2013-01-15 16:55:00,41.0,40.2,30.18,NE,41,1.0,5.0,97,0.00,,---,0.49,VWS V14.01,2013-01-15 21:55:00,
2013-01-15 17:00:00,41.0,41.0,30.18,East,85,0.0,4.0,100,0.00,,---,0.49,VWS V14.01,2013-01-15 22:00:00,
2013-01-15 17:04:00,41.0,41.0,30.18,NE,51,3.0,4.0,100,0.00,,---,0.49,VWS V14.01,2013-01-15 22:04:00,
2013-01-15 17:05:00,41.0,41.0,30.18,NE,51,3.0,4.0,100,0.00,,---,0.49,VWS V14.01,2013-01-15 22:05:00,
2013-01-15 17:10:00,40.9,39.8,30.18,NE,36,2.0,4.0,96,0.00,,---,0.49,VWS V14.01,2013-01-15 22:10:00,
2013-01-15 17:15:00,40.9,39.8,30.18,NE,38,1.0,5.0,96,0.00,,---,0.49,VWS V14.01,2013-01-15 22:15:00,
2013-01-15 17:20:00,40.9,39.8,30.18,NE,53,2.0,6.0,96,0.00,,---,0.49,VWS V14.01,2013-01-15 22:20:00,
2013-01-15 17:25:00,40.9,39.8,30.18,NE,36,2.0,6.0,96,0.00,,---,0.49,VWS V14.01,2013-01-15 22:25:00,
2013-01-15 17:29:00,40.9,39.8,30.18,NE,47,1.0,3.0,96,0.00,,---,0.49,VWS V14.01,2013-01-15 22:29:00,
2013-01-15 17:30:00,40.9,39.8,30.18,NE,47,1.0,3.0,96,0.00,,---,0.49,VWS V14.01,2013-01-15 22:30:00,
2013-01-15 17:34:00,40.9,39.8,30.18,East,98,4.0,4.0,96,0.00,,---,0.49,VWS V14.01,2013-01-15 22:34:00,
2013-01-15 17:35:00,40.9,39.8,30.18,East,98,4.0,4.0,96,0.00,,---,0.49,VWS V14.01,2013-01-15 22:35:00,
2013-01-15 17:39:00,40.9,40.1,30.19,ENE,57,4.0,4.0,97,0.00,,---,0.49,VWS V14.01,2013-01-15 22:39:00,
2013-01-15 17:40:00,40.9,40.1,30.19,ENE,57,4.0,4.0,97,0.00,,---,0.49,VWS V14.01,2013-01-15 22:40:00,
2013-01-15 17:44:00,40.9,39.8,30.18,ENE,69,1.0,6.0,96,0.00,,---,0.49,VWS V14.01,2013-01-15 22:44:00,
2013-01-15 17:45:00,40.9,39.8,30.18,ENE,69,1.0,6.0,96,0.00,,---,0.49,VWS V14.01,2013-01-15 22:45:00,
2013-01-15 17:49:00,40.9,39.8,30.18,ENE,63,1.0,7.0,96,0.00,,---,0.49,VWS V14.01,2013-01-15 22:49:00,
2013-01-15 17:50:00,40.9,39.8,30.18,ENE,63,1.0,7.0,96,0.00,,---,0.49,VWS V14.01,2013-01-15 22:50:00,
2013-01-15 17:55:00,40.9,40.1,30.17,ENE,61,3.0,3.0,97,0.00,,---,0.49,VWS V14.01,2013-01-15 22:55:00,
2013-01-15 18:00:00,40.9,39.8,30.17,ENE,59,0.0,5.0,96,0.00,,---,0.49,VWS V14.01,2013-01-15 23:00:00,
2013-01-15 18:05:00,40.8,40.0,30.17,ENE,59,0.0,2.0,97,0.01,,---,0.50,VWS V14.01,2013-01-15 23:05:00,
2013-01-15 18:10:00,40.9,40.1,30.17,ENE,59,1.0,3.0,97,0.01,,---,0.50,VWS V14.01,2013-01-15 23:10:00,
2013-01-15 18:14:00,40.9,40.1,30.16,East,79,0.0,4.0,97,0.01,,---,0.50,VWS V14.01,2013-01-15 23:14:00,
2013-01-15 18:15:00,40.9,40.1,30.16,East,79,0.0,4.0,97,0.01,,---,0.50,VWS V14.01,2013-01-15 23:15:00,
2013-01-15 18:19:00,40.8,40.0,30.16,ENE,68,1.0,6.0,97,0.01,,---,0.50,VWS V14.01,2013-01-15 23:19:00,
2013-01-15 18:20:00,40.8,40.0,30.16,ENE,68,1.0,6.0,97,0.01,,---,0.50,VWS V14.01,2013-01-15 23:20:00,
2013-01-15 18:24:00,40.9,40.1,30.16,ENE,75,0.0,4.0,97,0.01,,---,0.50,VWS V14.01,2013-01-15 23:24:00,
2013-01-15 18:25:00,40.9,40.1,30.16,ENE,75,0.0,4.0,97,0.01,,---,0.50,VWS V14.01,2013-01-15 23:25:00,
2013-01-15 18:29:00,40.9,40.1,30.16,NE,36,2.0,4.0,97,0.01,,---,0.50,VWS V14.01,2013-01-15 23:29:00,
2013-01-15 18:30:00,40.9,40.1,30.16,NE,36,2.0,4.0,97,0.01,,---,0.50,VWS V14.01,2013-01-15 23:30:00,
2013-01-15 18:34:00,40.9,40.1,30.16,East,81,4.0,4.0,97,0.01,,---,0.50,VWS V14.01,2013-01-15 23:34:00,
2013-01-15 18:35:00,40.9,40.1,30.16,East,81,4.0,4.0,97,0.01,,---,0.50,VWS V14.01,2013-01-15 23:35:00,
2013-01-15 18:39:00,40.8,40.0,30.16,ENE,58,2.0,6.0,97,0.01,,---,0.50,VWS V14.01,2013-01-15 23:39:00,
2013-01-15 18:40:00,40.8,40.0,30.16,ENE,58,2.0,6.0,97,0.01,,---,0.50,VWS V14.01,2013-01-15 23:40:00,
2013-01-15 18:45:00,40.8,40.0,30.16,NE,51,1.0,8.0,97,0.01,,---,0.50,VWS V14.01,2013-01-15 23:45:00,
2013-01-15 18:50:00,40.8,40.0,30.16,NE,55,1.0,5.0,97,0.01,,---,0.50,VWS V14.01,2013-01-15 23:50:00,
2013-01-15 18:54:00,40.8,40.0,30.16,NE,55,2.0,3.0,97,0.01,,---,0.50,VWS V14.01,2013-01-15 23:54:00,
2013-01-15 18:55:00,40.8,40.0,30.16,NE,55,2.0,3.0,97,0.01,,---,0.50,VWS V14.01,2013-01-15 23:55:00,
2013-01-15 19:00:00,40.8,40.0,30.17,ENE,69,0.0,5.0,97,0.01,,---,0.50,VWS V14.01,2013-01-16 00:00:00,
2013-01-15 19:05:00,40.9,40.1,30.16,ENE,67,0.0,3.0,97,0.01,,---,0.50,VWS V14.01,2013-01-16 00:05:00,
2013-01-15 19:10:00,40.9,40.1,30.16,ENE,67,0.0,1.0,97,0.00,,---,0.50,VWS V14.01,2013-01-16 00:10:00,
2013-01-15 19:14:00,40.9,40.1,30.16,ENE,70,2.0,3.0,97,0.00,,---,0.50,VWS V14.01,2013-01-16 00:14:00,
2013-01-15 19:15:00,40.9,40.1,30.16,ENE,70,2.0,3.0,97,0.00,,---,0.50,VWS V14.01,2013-01-16 00:15:00,
2013-01-15 19:19:00,40.9,40.1,30.16,ENE,66,0.0,3.0,97,0.00,,---,0.50,VWS V14.01,2013-01-16 00:19:00,
2013-01-15 19:20:00,40.9,40.1,30.16,ENE,66,0.0,3.0,97,0.00,,---,0.50,VWS V14.01,2013-01-16 00:20:00,
2013-01-15 19:25:00,40.9,40.1,30.16,East,90,1.0,4.0,97,0.00,,---,0.50,VWS V14.01,2013-01-16 00:25:00,
2013-01-15 19:30:00,40.9,40.1,30.17,East,90,0.0,2.0,97,0.00,,---,0.50,VWS V14.01,2013-01-16 00:30:00,
2013-01-15 19:35:00,40.9,40.1,30.17,East,90,0.0,2.0,97,0.00,,---,0.50,VWS V14.01,2013-01-16 00:35:00,
2013-01-15 19:40:00,40.9,40.1,30.18,North,355,3.0,4.0,97,0.00,,---,0.50,VWS V14.01,2013-01-16 00:40:00,
2013-01-15 19:44:00,40.9,40.1,30.18,NNE,22,0.0,4.0,97,0.00,,---,0.50,VWS V14.01,2013-01-16 00:44:00,
2013-01-15 19:45:00,40.9,40.1,30.18,NNE,22,0.0,4.0,97,0.00,,---,0.50,VWS V14.01,2013-01-16 00:45:00,
2013-01-15 19:49:00,40.9,40.1,30.17,North,355,8.0,8.0,97,0.00,,---,0.50,VWS V14.01,2013-01-16 00:49:00,
2013-01-15 19:50:00,40.9,40.1,30.17,North,355,8.0,8.0,97,0.00,,---,0.50,VWS V14.01,2013-01-16 00:50:00,
2013-01-15 19:54:00,40.9,40.1,30.17,NNE,17,4.0,9.0,97,0.00,,---,0.50,VWS V14.01,2013-01-16 00:54:00,
2013-01-15 19:55:00,40.9,40.1,30.17,NNE,17,4.0,9.0,97,0.00,,---,0.50,VWS V14.01,2013-01-16 00:55:00,
2013-01-15 20:00:00,40.9,40.1,30.17,NE,34,2.0,5.0,97,0.00,,---,0.50,VWS V14.01,2013-01-16 01:00:00,
2013-01-15 20:05:00,40.9,40.1,30.16,ENE,75,0.0,5.0,97,0.00,,---,0.50,VWS V14.01,2013-01-16 01:05:00,
2013-01-15 20:10:00,40.9,40.1,30.16,ENE,75,1.0,2.0,97,0.00,,---,0.50,VWS V14.01,2013-01-16 01:10:00,
2013-01-15 20:15:00,40.9,40.1,30.16,NE,47,1.0,5.0,97,0.00,,---,0.50,VWS V14.01,2013-01-16 01:15:00,
2013-01-15 20:20:00,40.9,40.1,30.16,NE,47,2.0,3.0,97,0.00,,---,0.50,VWS V14.01,2013-01-16 01:20:00,
2013-01-15 20:25:00,40.9,40.1,30.15,NE,47,0.0,3.0,97,0.00,,---,0.50,VWS V14.01,2013-01-16 01:25:00,
2013-01-15 20:30:00,41.0,40.2,30.14,NE,42,0.0,2.0,97,0.00,,---,0.50,VWS V14.01,2013-01-16 01:30:00,
2013-01-15 20:34:00,40.9,40.1,30.14,NE,46,1.0,2.0,97,0.00,,---,0.50,VWS V14.01,2013-01-16 01:34:00,
2013-01-15 20:35:00,40.9,40.1,30.14,NE,46,1.0,2.0,97,0.00,,---,0.50,VWS V14.01,2013-01-16 01:35:00,
2013-01-15 20:39:00,40.9,40.1,30.14,NE,42,1.0,4.0,97,0.00,,---,0.50,VWS V14.01,2013-01-16 01:39:00,
2013-01-15 20:40:00,41.0,40.2,30.14,NE,42,2.0,2.0,97,0.00,,---,0.50,VWS V14.01,2013-01-16 01:40:00,
2013-01-15 20:44:00,40.9,40.1,30.13,NE,42,0.0,2.0,97,0.00,,---,0.50,VWS V14.01,2013-01-16 01:44:00,
2013-01-15 20:45:00,40.9,40.1,30.13,NE,42,0.0,2.0,97,0.00,,---,0.50,VWS V14.01,2013-01-16 01:45:00,
2013-01-15 20:50:00,40.9,40.1,30.13,NE,35,0.0,4.0,97,0.00,,---,0.50,VWS V14.01,2013-01-16 01:50:00,
2013-01-15 20:54:00,40.9,40.1,30.13,NE,34,1.0,2.0,97,0.00,,---,0.50,VWS V14.01,2013-01-16 01:54:00,
2013-01-15 20:55:00,40.9,40.1,30.13,NE,34,1.0,2.0,97,0.00,,---,0.50,VWS V14.01,2013-01-16 01:55:00,
2013-01-15 20:59:00,40.9,40.1,30.14,NNE,22,2.0,5.0,97,0.00,,---,0.50,VWS V14.01,2013-01-16 01:59:00,
2013-01-15 21:00:00,40.9,40.1,30.14,NNE,22,2.0,5.0,97,0.00,,---,0.50,VWS V14.01,2013-01-16 02:00:00,
2013-01-15 21:04:00,40.9,40.1,30.13,NNE,26,0.0,3.0,97,0.00,,---,0.50,VWS V14.01,2013-01-16 02:04:00,
2013-01-15 21:05:00,40.9,40.1,30.13,NNE,26,0.0,3.0,97,0.00,,---,0.50,VWS V14.01,2013-01-16 02:05:00,
2013-01-15 21:09:00,40.9,40.1,30.12,NNE,29,0.0,3.0,97,0.00,,---,0.50,VWS V14.01,2013-01-16 02:09:00,
2013-01-15 21:10:00,40.9,40.1,30.12,NNE,29,0.0,3.0,97,0.00,,---,0.50,VWS V14.01,2013-01-16 02:10:00,
2013-01-15 21:15:00,41.0,40.2,30.13,NNE,29,0.0,1.0,97,0.00,,---,0.50,VWS V14.01,2013-01-16 02:15:00,
2013-01-15 21:20:00,41.0,40.2,30.13,NNE,27,3.0,3.0,97,0.00,,---,0.50,VWS V14.01,2013-01-16 02:20:00,
2013-01-15 21:25:00,41.0,40.2,30.13,NE,42,1.0,5.0,97,0.00,,---,0.50,VWS V14.01,2013-01-16 02:25:00,
2013-01-15 21:29:00,41.0,40.2,30.14,NE,42,0.0,2.0,97,0.00,,---,0.50,VWS V14.01,2013-01-16 02:29:00,
2013-01-15 21:30:00,41.0,40.2,30.14,NE,42,0.0,2.0,97,0.00,,---,0.50,VWS V14.01,2013-01-16 02:30:00,
2013-01-15 21:34:00,41.0,40.2,30.14,NE,42,1.0,2.0,97,0.00,,---,0.50,VWS V14.01,2013-01-16 02:34:00,
2013-01-15 21:35:00,41.0,40.2,30.14,NE,42,1.0,2.0,97,0.00,,---,0.50,VWS V14.01,2013-01-16 02:35:00,
2013-01-15 21:39:00,41.0,40.2,30.14,NE,42,2.0,2.0,97,0.00,,---,0.50,VWS V14.01,2013-01-16 02:39:00,
2013-01-15 21:40:00,41.0,40.2,30.14,NE,42,2.0,2.0,97,0.00,,---,0.50,VWS V14.01,2013-01-16 02:40:00,
2013-01-15 21:45:00,41.0,40.2,30.14,NNE,18,0.0,4.0,97,0.00,,---,0.50,VWS V14.01,2013-01-16 02:45:00,
2013-01-15 21:50:00,41.0,40.2,30.13,NE,35,2.0,4.0,97,0.01,,---,0.51,VWS V14.01,2013-01-16 02:50:00,
2013-01-15 21:55:00,40.9,40.1,30.13,NE,43,1.0,3.0,97,0.01,,---,0.51,VWS V14.01,2013-01-16 02:55:00,
2013-01-15 22:00:00,40.9,40.1,30.12,NE,43,0.0,2.0,97,0.01,,---,0.51,VWS V14.01,2013-01-16 03:00:00,
2013-01-15 22:05:00,41.0,40.2,30.12,NE,52,0.0,2.0,97,0.01,,---,0.51,VWS V14.01,2013-01-16 03:05:00,
2013-01-15 22:10:00,40.9,40.1,30.11,NE,52,0.0,1.0,97,0.02,,---,0.52,VWS V14.01,2013-01-16 03:10:00,
2013-01-15 22:15:00,41.0,40.2,30.11,NE,52,0.0,2.0,97,0.02,,---,0.52,VWS V14.01,2013-01-16 03:15:00,
2013-01-15 22:20:00,40.9,40.1,30.11,NE,52,0.0,2.0,97,0.02,,---,0.52,VWS V14.01,2013-01-16 03:20:00,
2013-01-15 22:25:00,41.0,40.2,30.11,NE,48,0.0,2.0,97,0.02,,---,0.52,VWS V14.01,2013-01-16 03:25:00,
2013-01-15 22:30:00,41.0,40.2,30.11,NE,46,0.0,2.0,97,0.02,,---,0.52,VWS V14.01,2013-01-16 03:30:00,
2013-01-15 22:35:00,41.0,40.2,30.12,NE,46,1.0,2.0,97,0.02,,---,0.52,VWS V14.01,2013-01-16 03:35:00,
2013-01-15 22:39:00,41.0,40.2,30.11,NE,46,0.0,2.0,97,0.02,,---,0.52,VWS V14.01,2013-01-16 03:39:00,
2013-01-15 22:40:00,41.0,40.2,30.11,NE,46,0.0,2.0,97,0.02,,---,0.52,VWS V14.01,2013-01-16 03:40:00,
2013-01-15 22:45:00,40.9,40.1,30.10,NE,46,0.0,2.0,97,0.02,,---,0.52,VWS V14.01,2013-01-16 03:45:00,
2013-01-15 22:50:00,40.9,40.1,30.11,NE,46,0.0,2.0,97,0.02,,---,0.52,VWS V14.01,2013-01-16 03:50:00,
2013-01-15 22:54:00,41.0,40.2,30.12,NE,46,2.0,4.0,97,0.01,,---,0.52,VWS V14.01,2013-01-16 03:54:00,
2013-01-15 22:55:00,41.0,40.2,30.12,NE,46,2.0,4.0,97,0.01,,---,0.52,VWS V14.01,2013-01-16 03:55:00,
2013-01-15 23:00:00,41.0,40.2,30.12,NE,46,0.0,2.0,97,0.01,,---,0.52,VWS V14.01,2013-01-16 04:00:00,
2013-01-15 23:05:00,40.9,40.1,30.11,NE,46,0.0,2.0,97,0.01,,---,0.52,VWS V14.01,2013-01-16 04:05:00,
2013-01-15 23:09:00,41.0,40.2,30.11,NE,40,1.0,3.0,97,0.01,,---,0.52,VWS V14.01,2013-01-16 04:09:00,
2013-01-15 23:10:00,41.0,40.2,30.11,NE,40,1.0,3.0,97,0.01,,---,0.52,VWS V14.01,2013-01-16 04:10:00,
2013-01-15 23:15:00,40.9,40.1,30.12,North,355,0.0,4.0,97,0.00,,---,0.52,VWS V14.01,2013-01-16 04:15:00,
2013-01-15 23:20:00,40.9,40.1,30.11,NE,46,0.0,5.0,97,0.00,,---,0.52,VWS V14.01,2013-01-16 04:20:00,
2013-01-15 23:25:00,40.9,40.1,30.11,NNE,22,1.0,3.0,97,0.00,,---,0.52,VWS V14.01,2013-01-16 04:25:00,
2013-01-15 23:29:00,40.8,40.0,30.11,NNE,22,1.0,2.0,97,0.00,,---,0.52,VWS V14.01,2013-01-16 04:29:00,
2013-01-15 23:30:00,40.8,40.0,30.11,NNE,22,1.0,2.0,97,0.00,,---,0.52,VWS V14.01,2013-01-16 04:30:00,
2013-01-15 23:34:00,40.8,40.0,30.12,NNE,22,0.0,2.0,97,0.00,,---,0.52,VWS V14.01,2013-01-16 04:34:00,
2013-01-15 23:35:00,40.3,39.5,30.10,NNE,14,1.0,2.0,97,0.00,,---,0.00,VWS V14.01,2013-01-16 04:35:00,
2013-01-15 23:39:00,40.7,39.9,30.11,NNE,14,3.0,4.0,97,0.00,,---,0.52,VWS V14.01,2013-01-16 04:39:00,
2013-01-15 23:40:00,40.7,39.9,30.11,NNE,14,3.0,4.0,97,0.00,,---,0.52,VWS V14.01,2013-01-16 04:40:00,
2013-01-15 23:44:00,40.7,39.9,30.11,NNE,13,0.0,5.0,97,0.00,,---,0.52,VWS V14.01,2013-01-16 04:44:00,
2013-01-15 23:45:00,40.7,39.9,30.11,NNE,13,0.0,5.0,97,0.00,,---,0.52,VWS V14.01,2013-01-16 04:45:00,
2013-01-15 23:49:00,40.6,39.8,30.11,NNE,15,0.0,5.0,97,0.00,,---,0.52,VWS V14.01,2013-01-16 04:49:00,
2013-01-15 23:50:00,40.6,39.8,30.11,NNE,15,0.0,5.0,97,0.00,,---,0.52,VWS V14.01,2013-01-16 04:50:00,
2013-01-15 23:55:00,40.5,39.7,30.10,NNE,13,0.0,5.0,97,0.00,,---,0.52,VWS V14.01,2013-01-16 04:55:00,